Weather History for North Bend, OR

Change the Weather History Date:

Sunday, November 28, 2010

  Actual Average Record
Temperature  
Mean Temperature 43 °F 47 °F  
Max Temperature 48 °F 52 °F 71 °F (2002)
Min Temperature 37 °F 41 °F 26 °F (1919)
Degree Days  
Heating Degree Days 22 18  
Month to date heating degree days 468 449  
Since 1 July heating degree days 1459 1415  
Cooling Degree Days 0 0  
Month to date cooling degree days 0 0  
Year to date cooling degree days 3 2  
Moisture  
Dew Point 33 °F    
Average Humidity 73    
Maximum Humidity 83    
Minimum Humidity 59    
Precipitation  
Precipitation 0.25 in 0.38 in 2.35 in (2003)
Month to date precipitation 6.94 9.43  
Year to date precipitation 54.76 52.98  
Sea Level Pressure  
Sea Level Pressure 30.19 in    
Wind  
Wind Speed 8 mph (SSE)    
Max Wind Speed 10 mph    
Max Gust Speed -    
Visibility 10 miles    
Events      
T = Trace of Precipitation, MM = Missing Value Source: NWS Daily Summary

Daily Weather History Graph

Daily Weather History Graph

Search for Another Location

Airport:

Trip Planner

Search our weather history database for the weather conditions in past years. The results will help you decide how hot, cold, wet, or windy it might be!

Date:

Astronomy

Nov. 28, 2010 Rise Set
Actual Time 7:26 AM PST 4:43 PM PST
Civil Twilight 6:54 AM PST 5:15 PM PST
Nautical Twilight 6:19 AM PST 5:50 PM PST
Astronomical Twilight 5:44 AM PST 6:24 PM PST
Moon No Moon Rise 12:29 PM PST (11/28)
Length of Visible Light 10h 20m
Length of Day
9h 16m
Waning Gibbous, 50% of the Moon is Illuminated
Nov 28
Waning Gibbous
Nov 28
Last Quarter
Dec 5
New
Dec 13
First Quarter
Dec 21
Full

Hourly Weather History & Observations

Time (PST) Temp. Windchill Dew Point Humidity Pressure Visibility Wind Dir Wind Speed Gust Speed Precip Events Conditions
12:15 AM 39.2 °F 32.5 °F 32.0 °F 75% 30.06 in 10.0 mi SE 10.4 mph - N/A   Scattered Clouds
12:35 AM 39.2 °F 33.0 °F 32.0 °F 75% 30.06 in 10.0 mi SSE 9.2 mph - N/A   Clear
12:55 AM 37.4 °F 31.4 °F 30.2 °F 75% 30.06 in 10.0 mi SE 8.1 mph - N/A   Clear
1:15 AM 37.4 °F 30.8 °F 30.2 °F 75% 30.06 in 10.0 mi SSE 9.2 mph - N/A   Scattered Clouds
1:35 AM 39.2 °F 34.2 °F 32.0 °F 75% 30.07 in 10.0 mi SE 6.9 mph - N/A   Mostly Cloudy
1:55 AM 39.2 °F 32.5 °F 33.8 °F 81% 30.08 in 10.0 mi ESE 10.4 mph - N/A   Overcast
2:15 AM 39.2 °F 33.0 °F 33.8 °F 81% 30.08 in 10.0 mi SE 9.2 mph - N/A   Overcast
2:35 AM 39.2 °F 34.2 °F 30.2 °F 70% 30.10 in 10.0 mi SSE 6.9 mph - 0.01 in   Overcast
2:55 AM 39.2 °F 33.6 °F 30.2 °F 70% 30.10 in 10.0 mi SSE 8.1 mph - 0.04 in   Overcast
3:15 AM 39.2 °F 35.0 °F 32.0 °F 75% 30.11 in 9.0 mi SSE 5.8 mph - 0.04 in   Overcast
3:35 AM 39.2 °F 33.6 °F 28.4 °F 65% 30.11 in 10.0 mi South 8.1 mph - 0.06 in   Overcast
3:55 AM 37.4 °F 31.4 °F 24.8 °F 60% 30.12 in 10.0 mi SSE 8.1 mph - 0.06 in   Mostly Cloudy
4:15 AM 37.4 °F 31.4 °F 28.4 °F 70% 30.12 in 10.0 mi SSE 8.1 mph - N/A   Mostly Cloudy
4:35 AM 37.4 °F 32.1 °F 28.4 °F 70% 30.12 in 10.0 mi SSE 6.9 mph - N/A   Mostly Cloudy
4:55 AM 39.2 °F 33.6 °F 28.4 °F 65% 30.13 in 10.0 mi SE 8.1 mph - N/A   Overcast
5:15 AM 37.4 °F 30.8 °F 30.2 °F 75% 30.13 in 10.0 mi SSE 9.2 mph - N/A   Scattered Clouds
5:35 AM 37.4 °F 29.8 °F 30.2 °F 75% 30.13 in 10.0 mi SE 11.5 mph - N/A   Clear
5:55 AM 37.4 °F 30.8 °F 28.4 °F 70% 30.13 in 10.0 mi SSE 9.2 mph - N/A   Scattered Clouds
6:15 AM 37.4 °F 31.4 °F 30.2 °F 75% 30.14 in 10.0 mi SSE 8.1 mph - N/A   Overcast
6:35 AM 37.4 °F 32.1 °F 30.2 °F 75% 30.14 in 9.0 mi SSE 6.9 mph - 0.02 in   Mostly Cloudy
6:55 AM 37.4 °F 31.4 °F 28.4 °F 70% 30.15 in 10.0 mi SSE 8.1 mph - 0.02 in   Mostly Cloudy
7:15 AM 37.4 °F 30.8 °F 24.8 °F 60% 30.16 in 10.0 mi SSE 9.2 mph - N/A   Scattered Clouds
7:35 AM 37.4 °F 30.8 °F 30.2 °F 75% 30.17 in 10.0 mi SE 9.2 mph - N/A   Partly Cloudy
7:55 AM 37.4 °F 31.4 °F 26.6 °F 65% 30.17 in 10.0 mi SSE 8.1 mph - N/A   Partly Cloudy
8:15 AM 37.4 °F 30.8 °F 28.4 °F 70% 30.18 in 10.0 mi SE 9.2 mph - N/A   Mostly Cloudy
8:35 AM 39.2 °F 32.5 °F 30.2 °F 70% 30.19 in 10.0 mi ESE 10.4 mph - 0.01 in   Overcast
8:55 AM 39.2 °F 32.5 °F 28.4 °F 65% 30.20 in 10.0 mi SE 10.4 mph - 0.02 in   Overcast
9:15 AM 39.2 °F 33.0 °F 33.8 °F 81% 30.21 in 9.0 mi SSE 9.2 mph - 0.06 in   Overcast
9:35 AM 39.2 °F 33.0 °F 33.8 °F 81% 30.21 in 10.0 mi South 9.2 mph - 0.09 in   Overcast
9:55 AM 39.2 °F 33.0 °F 33.8 °F 81% 30.22 in 10.0 mi SSE 9.2 mph - 0.09 in   Mostly Cloudy
10:15 AM 41.0 °F 36.4 °F 33.8 °F 76% 30.22 in 10.0 mi SSE 6.9 mph - N/A   Mostly Cloudy
10:35 AM 42.8 °F 36.6 °F 35.6 °F 76% 30.23 in 10.0 mi SE 11.5 mph - N/A   Overcast
10:55 AM 42.8 °F 37.5 °F 35.6 °F 76% 30.23 in 10.0 mi SE 9.2 mph - N/A   Overcast
11:15 AM 42.8 °F 39.3 °F 35.6 °F 76% 30.24 in 10.0 mi SE 5.8 mph - 0.01 in   Overcast
11:35 AM 42.8 °F 37.5 °F 35.6 °F 76% 30.23 in 10.0 mi South 9.2 mph - 0.02 in   Mostly Cloudy
11:55 AM 44.6 °F 43.1 °F 39.2 °F 81% 30.24 in 10.0 mi SSE 3.5 mph - 0.02 in   Mostly Cloudy
12:15 PM 44.6 °F 39.7 °F 37.4 °F 76% 30.23 in 9.0 mi SE 9.2 mph - N/A   Mostly Cloudy
12:35 PM 44.6 °F 40.2 °F 37.4 °F 76% 30.23 in 10.0 mi SSE 8.1 mph - N/A   Mostly Cloudy
12:55 PM 46.4 °F 42.4 °F 37.4 °F 71% 30.23 in 10.0 mi SSE 8.1 mph - N/A   Scattered Clouds
1:15 PM 46.4 °F 42.9 °F 37.4 °F 71% 30.23 in 10.0 mi SSE 6.9 mph - N/A   Clear
1:35 PM 48.2 °F - 39.2 °F 71% 30.23 in 10.0 mi South 5.8 mph - N/A   Partly Cloudy
1:55 PM 46.4 °F 43.5 °F 37.4 °F 71% 30.24 in 10.0 mi South 5.8 mph - N/A   Mostly Cloudy
2:15 PM 46.4 °F 42.4 °F 37.4 °F 71% 30.24 in 10.0 mi South 8.1 mph - N/A   Mostly Cloudy
2:35 PM 46.4 °F 44.3 °F 39.2 °F 76% 30.24 in 10.0 mi South 4.6 mph - N/A   Mostly Cloudy
2:55 PM 46.4 °F 43.5 °F 37.4 °F 71% 30.24 in 10.0 mi South 5.8 mph - N/A   Partly Cloudy
3:15 PM 48.2 °F - 37.4 °F 66% 30.25 in 10.0 mi South 8.1 mph - N/A   Mostly Cloudy
3:35 PM 46.4 °F 42.9 °F 37.4 °F 71% 30.25 in 10.0 mi South 6.9 mph - N/A   Scattered Clouds
3:55 PM 46.4 °F 44.3 °F 37.4 °F 71% 30.26 in 10.0 mi SSE 4.6 mph - N/A   Clear
4:15 PM 44.6 °F 41.4 °F 35.6 °F 71% 30.27 in 10.0 mi SSE 5.8 mph - N/A   Clear
4:35 PM 42.8 °F 39.3 °F 33.8 °F 70% 30.27 in 10.0 mi South 5.8 mph - N/A   Clear
4:55 PM 41.0 °F 36.4 °F 33.8 °F 76% 30.28 in 10.0 mi SSE 6.9 mph - N/A   Clear
5:15 PM 41.0 °F 35.8 °F 33.8 °F 76% 30.28 in 10.0 mi SE 8.1 mph - N/A   Clear
5:35 PM 41.0 °F 35.8 °F 35.6 °F 81% 30.28 in 10.0 mi SE 8.1 mph - N/A   Clear
5:55 PM 39.2 °F 35.0 °F 32.0 °F 75% 30.29 in 10.0 mi SSE 5.8 mph - N/A   Clear
6:15 PM 41.0 °F 35.8 °F 33.8 °F 76% 30.29 in 10.0 mi SE 8.1 mph - N/A   Clear
6:35 PM 39.2 °F 33.6 °F 33.8 °F 81% 30.30 in 10.0 mi SE 8.1 mph - N/A   Clear
6:55 PM 39.2 °F 32.5 °F 33.8 °F 81% 30.30 in 1.0 mi SE 10.4 mph - N/A   Mostly Cloudy
7:15 PM 39.2 °F 33.0 °F 33.8 °F 81% 30.30 in 2.0 mi SE 9.2 mph - N/A   Overcast
7:35 PM 39.2 °F 33.6 °F 32.0 °F 75% 30.30 in 1.5 mi SE 8.1 mph - N/A   Mostly Cloudy
7:55 PM 39.2 °F 33.6 °F 32.0 °F 75% 30.30 in 10.0 mi SE 8.1 mph - N/A   Partly Cloudy
8:15 PM 39.2 °F 33.0 °F 32.0 °F 75% 30.30 in 10.0 mi SE 9.2 mph - N/A   Clear
8:35 PM 37.4 °F 32.8 °F 32.0 °F 81% 30.31 in 10.0 mi SE 5.8 mph - N/A   Clear
8:55 PM 37.4 °F 31.4 °F 30.2 °F 75% 30.31 in 10.0 mi SSE 8.1 mph - N/A   Scattered Clouds
9:15 PM 37.4 °F 32.1 °F 32.0 °F 81% 30.32 in 10.0 mi SSE 6.9 mph - N/A   Overcast
9:35 PM 37.4 °F 30.8 °F 28.4 °F 70% 30.33 in 10.0 mi ESE 9.2 mph - N/A   Mostly Cloudy
9:55 PM 37.4 °F 30.8 °F 30.2 °F 75% 30.34 in 10.0 mi ESE 9.2 mph - N/A   Partly Cloudy
10:15 PM 37.4 °F 32.1 °F 30.2 °F 75% 30.34 in 10.0 mi SE 6.9 mph - N/A   Clear
10:35 PM 37.4 °F 32.1 °F 28.4 °F 70% 30.34 in 10.0 mi SSE 6.9 mph - N/A   Clear
10:55 PM 37.4 °F 32.1 °F 30.2 °F 75% 30.34 in 10.0 mi SSE 6.9 mph - N/A   Clear
11:15 PM 37.4 °F 31.4 °F 30.2 °F 75% 30.34 in 10.0 mi SSE 8.1 mph - N/A   Partly Cloudy
11:35 PM 37.4 °F 31.4 °F 30.2 °F 75% 30.34 in 10.0 mi SSE 8.1 mph - N/A   Clear
11:55 PM 37.4 °F 32.1 °F 30.2 °F 75% 30.34 in 10.0 mi SSE 6.9 mph - N/A   Clear